Location: Cactus School
(34.5700°N, 118.0931°W)
Time: 15:53:59
(UTC-07:00)

Hubble Space Telescope - Visible Passes

Search period start: 22 April 2019 00:00
Search period end: 02 May 2019 00:00
Orbit: 537 x 540 km, 28.5° (Epoch: 21 April)

Date Brightness Start Highest point End Pass type
(mag) Time Alt. Az. Time Alt. Az. Time Alt. Az.
24 Apr 3.3 04:05:09 12° SE 04:05:09 12° SE 04:05:54 10° SE visible
24 Apr 2.1 05:41:08 10° SW 05:44:42 28° S 05:48:16 10° ESE visible
25 Apr 3.3 03:55:08 13° SE 03:55:08 13° SE 03:55:55 10° ESE visible
25 Apr 1.9 05:30:28 10° SW 05:34:07 31° S 05:37:48 10° ESE visible
26 Apr 3.3 03:45:06 13° SE 03:45:06 13° SE 03:45:44 10° ESE visible
26 Apr 1.8 05:20:25 13° SW 05:23:34 33° S 05:27:18 10° ESE visible
27 Apr 3.5 03:35:03 12° ESE 03:35:03 12° ESE 03:35:25 10° ESE visible
27 Apr 1.7 05:10:23 17° SW 05:13:01 34° S 05:16:47 10° ESE visible
28 Apr 3.6 03:25:02 10° ESE 03:25:02 10° ESE 03:25:03 10° ESE visible
28 Apr 1.6 05:00:21 21° SW 05:02:28 35° S 05:06:15 10° ESE visible
29 Apr 1.6 04:50:22 26° SW 04:51:55 35° S 04:55:42 10° ESE visible
30 Apr 1.6 04:40:26 30° SSW 04:41:21 34° S 04:45:07 10° ESE visible
01 May 1.6 04:30:34 32° SSW 04:30:48 32° S 04:34:31 10° ESE visible
